This demonstration page uses our WeatherBlox Daily Observations layout. Learn more.

Hourly Observations for July 5, 2018

Temp ( °F °C ) Dew Point ( °F °C ) Humidity (%) Winds ( mph kmh ) Pressure ( in mb ) Visibility ( mi km ) Precip ( " mm )
12:15 am 00:15 Partly Cloudy with Nearby Thunderstorms 69 20.6 64 17.6 83 83 ENE 17 28 30.18 1022 10 16.0934 0 0
12:35 am 00:35 Mostly Cloudy with Nearby Thunderstorms 69 20.5 63 17 80 80 NE 17 28 30.18 1022 10 16.0934 0 0
12:55 am 00:55 Mostly Cloudy with Nearby Thunderstorms 69 20.8 62 16.6 77 77 NE 14 22 30.24 1024 10 16.0934 0 0
1:15 am 01:15 Cloudy with Nearby Thunderstorms 68 20.2 63 17.1 82 82 NNW 13 20 30.27 1025 10 16.0934 0 0
1:35 am 01:35 Cloudy with Nearby Thunderstorms 69 20.7 63 17.1 80 80 NNE 20 31 30.27 1025 10 16.0934 0 0
1:55 am 01:55 Windy with Storms Likely 67 19.6 64 17.6 88 88 NNE 21 33 30.27 1025 10 16.0934 0 0
2:15 am 02:15 Cloudy with Heavy Thunderstorms 67 19.3 64 18 92 92 ENE 20 31 30.27 1025 4 6.43736 0.17 4.318
2:35 am 02:35 Cloudy with Heavy Thunderstorms 65 18.5 65 18.3 99 99 E 13 20 30.33 1027 1.5 2.41401 0.75 19.05
2:55 am 02:55 Cloudy with Thunderstorms 65 18.4 65 18.4 100 100 ESE 23 37 30.27 1025 1.5 2.41401 1.23 31.242
3:15 am 03:15 Windy with Storms Likely 65 18.1 65 18.1 100 100 E 22 35 30.3 1026 7 11.26538 0.05 1.27
3:35 am 03:35 Cloudy 64 18 64 18 100 100 ENE 16 26 30.33 1027 10 16.0934 0.06 1.524
3:55 am 03:55 Cloudy with Light Thunderstorms 64 18 64 18 100 100 ENE 16 26 30.36 1028 10 16.0934 0.08 2.032
4:15 am 04:15 Cloudy with Thunderstorms 64 17.8 64 17.8 100 100 ENE 17 28 30.33 1027 10 16.0934 0.01 0.254
4:35 am 04:35 Cloudy with Thunderstorms 64 18 64 17.9 99 99 E 14 22 30.33 1027 10 16.0934 0.01 0.254
4:55 am 04:55 Cloudy with Thunderstorms 64 18 64 17.8 99 99 ENE 18 30 30.33 1027 10 16.0934 0.01 0.254
5:15 am 05:15 Cloudy with Heavy Thunderstorms 64 18 64 18 100 100 W 3 6 30.36 1028 7 11.26538 0.04 1.016
5:35 am 05:35 Cloudy with Light Thunderstorms 65 18.2 64 17.9 98 98 E 16 26 30.33 1027 10 16.0934 0.08 2.032
5:55 am 05:55 Cloudy with Light Thunderstorms 65 18.3 64 17.9 98 98 E 6 9 30.33 1027 7 11.26538 0.13 3.302
6:15 am 06:15 Cloudy with Light Rain 65 18.1 64 17.7 98 98 SSE 14 22 30.3 1026 10 16.0934 0.02 0.508
6:35 am 06:35 Cloudy with Light Rain 64 18 63 17.4 96 96 SE 14 22 30.27 1025 10 16.0934 0.02 0.508
6:55 am 06:55 Mostly Cloudy 65 18.1 63 17.2 95 95 S 10 17 30.3 1026 10 16.0934 0.03 0.762
7:15 am 07:15 Partly Cloudy 65 18.3 63 17.2 93 93 SSE 7 11 30.3 1026 10 16.0934 0 0
7:35 am 07:35 Partly Cloudy 65 18.6 64 17.5 93 93 SSW 3 6 30.3 1026 10 16.0934 0 0
7:55 am 07:55 Sunny 67 19.2 64 17.9 92 92 SW 8 13 30.3 1026 10 16.0934 0 0
8:15 am 08:15 Sunny with Thunderstorms 68 20.1 64 18 88 88 SW 7 11 30.27 1025 10 16.0934 0 0
8:35 am 08:35 Sunny 68 19.9 64 18 89 89 SSW 6 9 30.27 1025 10 16.0934 0 0
8:55 am 08:55 Sunny 68 20.2 65 18.2 88 88 W 3 6 30.27 1025 10 16.0934 0 0
9:15 am 09:15 Partly Cloudy 68 20.1 66 18.9 93 93 NNE 3 6 30.3 1026 10 16.0934 0 0
9:35 am 09:35 Partly Cloudy 69 20.7 67 19.3 92 92 N 6 9 30.3 1026 10 16.0934 0 0
9:55 am 09:55 Sunny 70 21.2 67 19.5 90 90 N 7 11 30.33 1027 10 16.0934 0 0
10:15 am 10:15 Sunny 71 21.5 67 19.5 88 88 NNE 9 15 30.36 1028 10 16.0934 0 0
10:35 am 10:35 Sunny 71 21.4 67 19.4 88 88 N 9 15 30.36 1028 10 16.0934 0 0
10:55 am 10:55 Sunny 71 21.5 66 19.1 86 86 N 10 17 30.36 1028 10 16.0934 0 0
11:15 am 11:15 Sunny 72 22 66 19 83 83 NNE 10 17 30.36 1028 10 16.0934 0 0
11:35 am 11:35 Sunny 73 22.9 67 19.3 80 80 NNE 9 15 30.36 1028 10 16.0934 0 0
11:55 am 11:55 Sunny 74 23.2 67 19.7 81 81 NE 12 19 30.36 1028 10 16.0934 0 0
12:15 pm 12:15 Partly Cloudy 74 23.1 68 20.2 84 84 ENE 9 15 30.36 1028 10 16.0934 0 0
12:35 pm 12:35 Partly Cloudy 74 23.5 67 19.7 79 79 ENE 10 17 30.36 1028 10 16.0934 0 0
12:55 pm 12:55 Sunny 75 24.1 67 19.5 76 76 NE 7 11 30.33 1027 10 16.0934 0 0
1:15 pm 13:15 Sunny 76 24.7 66 18.8 70 70 NE 9 15 30.33 1027 10 16.0934 0 0
1:35 pm 13:35 Sunny 77 24.9 68 19.9 74 74 ENE 13 20 30.33 1027 10 16.0934 0 0
1:55 pm 13:55 Sunny 77 25 67 19.3 71 71 ENE 8 13 30.33 1027 10 16.0934 0 0
2:15 pm 14:15 Sunny 78 25.6 68 19.9 71 71 ENE 10 17 30.33 1027 10 16.0934 0 0
2:35 pm 14:35 Sunny 78 25.5 67 19.6 70 70 ENE 12 19 30.33 1027 10 16.0934 0 0
2:55 pm 14:55 Sunny 78 25.5 67 19.2 68 68 ENE 12 19 30.33 1027 10 16.0934 0 0
3:15 pm 15:15 Sunny 78 25.8 68 20 70 70 E 9 15 30.33 1027 10 16.0934 0 0
3:35 pm 15:35 Sunny 79 26.2 67 19.6 67 67 ENE 10 17 30.33 1027 10 16.0934 0 0
3:55 pm 15:55 Sunny 79 26 67 19.3 67 67 ENE 10 17 30.33 1027 10 16.0934 0 0
4:15 pm 16:15 Sunny 79 26 67 19.2 66 66 ENE 13 20 30.33 1027 10 16.0934 0 0
4:35 pm 16:35 Sunny 79 26.1 67 19.6 67 67 ENE 12 19 30.33 1027 10 16.0934 0 0
4:55 pm 16:55 Sunny 78 25.8 69 20.5 73 73 E 12 19 30.33 1027 10 16.0934 0 0
5:15 pm 17:15 Sunny 78 25.8 68 19.8 70 70 ENE 9 15 30.33 1027 10 16.0934 0 0
5:35 pm 17:35 Sunny 78 25.8 68 19.9 70 70 E 12 19 30.3 1026 10 16.0934 0 0
5:55 pm 17:55 Sunny 78 25.5 69 20.5 74 74 ENE 9 15 30.3 1026 10 16.0934 0 0
6:15 pm 18:15 Sunny 78 25.5 69 20.4 73 73 ENE 12 19 30.3 1026 10 16.0934 0 0
6:35 pm 18:35 Sunny 78 25.3 69 20.5 75 75 ENE 9 15 30.3 1026 10 16.0934 0 0
6:55 pm 18:55 Sunny 78 25.5 69 20.4 73 73 E 10 17 30.3 1026 10 16.0934 0 0
7:15 pm 19:15 Sunny 77 25.1 68 20 73 73 ENE 8 13 30.3 1026 10 16.0934 0 0
7:35 pm 19:35 Sunny 77 24.8 69 20.3 76 76 ENE 7 11 30.3 1026 10 16.0934 0 0
7:55 pm 19:55 Sunny 76 24.5 69 20.7 79 79 E 7 11 30.3 1026 10 16.0934 0 0
8:15 pm 20:15 Sunny 75 24.1 70 21 83 83 E 7 11 30.3 1026 10 16.0934 0 0
8:35 pm 20:35 Sunny 75 23.7 70 21.1 85 85 E 6 9 30.3 1026 10 16.0934 0 0
8:55 pm 20:55 Sunny 73 23 69 20.8 87 87 E 5 7 30.33 1027 10 16.0934 0 0
9:15 pm 21:15 Clear 72 22.2 68 20.2 89 89 E 5 7 30.36 1028 10 16.0934 0 0
9:35 pm 21:35 Clear 71 21.5 68 20.1 92 92 E 5 7 30.36 1028 10 16.0934 0 0
9:55 pm 21:55 Clear 70 21.1 68 20 93 93 E 5 7 30.36 1028 10 16.0934 0 0
10:15 pm 22:15 Clear 69 20.6 68 20 96 96 E 6 9 30.36 1028 10 16.0934 0 0
10:35 pm 22:35 Clear 69 20.5 68 19.8 96 96 E 6 9 30.36 1028 10 16.0934 0 0
10:55 pm 22:55 Clear 69 20.8 68 20 95 95 E 6 9 30.36 1028 10 16.0934 0 0
11:15 pm 23:15 Clear 68 20.2 67 19.6 96 96 E 6 9 30.42 1030 10 16.0934 0 0
11:35 pm 23:35 Clear 68 20.2 67 19.6 96 96 ENE 3 6 30.42 1030 10 16.0934 0 0
11:55 pm 23:55 Clear 67 19.7 67 19.5 99 99 E 3 6 30.39 1029 10 16.0934 0 0

Powered by AerisWeather